Wind_Speed
35 35 36 37 38 42 49 52 32 23 24 27 32 38 44 49 51 52 46 53 56 57 65 69 73 72 67 65 63 57 56 50 45 41 36 33 30 28 25 24 24 21 20 19 16
34 35 36 37 38 39 46 46 31 27 27 29 35 34 33 39 49 54 52 53 53 61 62 68 73 74 72 69 58 53 60 52 47 43 43 37 33 29 25 25 24 22 21 20 17
32 34 35 36 36 37 42 41 31 27 24 28 32 31 34 34 42 46 53 54 57 53 66 67 73 76 76 73 67 60 51 56 50 49 45 39 34 29 26 24 25 23 23 22 19
31 32 33 34 34 35 37 33 26 24 23 24 21 19 25 30 36 44 47 52 52 62 65 69 73 78 78 75 70 62 55 63 59 50 47 40 35 30 25 25 25 25 25 22 20
31 32 31 33 32 34 34 32 28 27 25 23 20 13 15 19 28 33 44 42 45 62 59 70 71 76 77 76 72 68 43 59 51 49 48 42 36 31 26 25 25 26 25 22 21
30 30 31 32 32 32 31 30 29 30 27 23 19 14 13 18 23 32 32 29 47 48 60 70 69 72 75 74 70 64 53 55 57 50 49 41 36 31 26 26 27 27 25 24 21
26 31 30 31 32 29 29 30 25 29 33 24 22 16 13 15 21 24 26 40 38 43 56 64 66 66 74 71 66 58 46 35 66 52 46 39 33 27 26 27 29 28 26 25 23
33 25 27 29 31 31 28 25 25 24 27 31 23 17 13 15 19 23 26 29 41 46 54 57 62 65 70 69 66 53 60 49 37 47 31 31 25 28 26 28 30 28 26 26 23
36 37 27 28 30 30 29 26 24 21 20 25 23 19 13 15 20 22 26 29 40 50 54 57 61 65 66 63 63 58 49 42 36 32 30 25 24 24 26 29 30 28 27 26 25
33 35 36 29 29 30 29 28 23 24 17 20 20 22 11 12 17 21 26 30 41 50 54 56 59 61 65 61 58 55 47 39 31 26 24 25 24 25 28 30 31 29 28 28 28
36 36 34 35 30 30 30 30 27 24 17 15 17 17 16 12 18 24 30 38 44 47 47 49 56 61 62 59 53 48 48 33 24 24 26 27 29 27 29 31 31 30 31 31 29
39 38 37 35 34 32 30 30 30 26 23 11 13 14 15 9 11 23 33 40 40 38 40 42 44 48 53 51 50 52 50 40 44 35 32 31 31 33 31 33 33 33 32 32 31
42 42 40 40 37 34 33 30 30 29 21 17 11 13 14 10 11 23 32 38 38 34 32 33 36 44 49 48 47 46 43 39 39 37 37 39 38 36 33 36 35 33 34 34 34
44 43 43 42 40 39 38 34 32 29 26 16 14 9 12 12 15 23 30 34 35 34 33 35 38 42 46 45 43 42 38 36 39 40 41 41 41 38 36 37 37 36 35 37 36
48 46 46 45 42 42 41 39 36 32 30 20 16 10 14 15 16 24 27 30 32 33 33 32 36 42 46 44 45 43 40 37 40 41 42 41 42 39 39 38 37 37 38 38 37
54 48 48 48 47 44 44 43 41 40 32 24 18 15 12 13 19 24 29 30 32 36 37 37 40 44 46 45 46 46 42 42 44 43 45 41 43 39 40 39 40 39 37 37 37
55 51 48 50 50 49 48 47 48 46 33 26 24 18 17 13 20 24 30 32 33 37 38 40 42 45 48 48 49 47 44 43 45 45 44 40 43 40 39 39 39 38 37 36 36
56 54 54 54 55 53 52 53 55 46 39 33 30 26 24 23 21 23 28 34 36 38 38 42 43 46 49 49 46 47 46 42 42 44 42 42 43 42 41 36 36 36 35 35 35
57 55 57 60 60 60 60 63 58 50 46 39 36 34 28 30 30 30 29 32 33 35 40 42 44 46 49 50 50 47 46 43 44 43 43 44 42 43 41 39 36 35 34 35 35
64 63 62 62 66 67 67 65 62 59 54 49 43 40 39 31 37 36 37 34 35 34 36 43 43 44 47 47 48 47 44 44 45 45 47 46 46 43 39 34 33 34 34 35 36
72 71 73 69 72 75 75 72 69 66 63 57 54 49 44 43 38 40 39 38 38 37 38 38 43 45 44 48 49 48 48 46 46 47 46 47 47 38 35 35 33 33 34 36 36
77 76 79 78 80 79 78 78 75 74 71 69 61 57 51 48 47 43 45 44 44 43 43 41 44 43 45 44 45 46 47 45 46 45 44 42 41 39 37 34 32 34 36 37 37
84 81 75 76 76 69 71 72 74 76 77 76 71 67 59 55 54 51 46 47 49 48 48 47 49 49 47 48 49 50 48 45 45 44 43 42 42 41 38 34 36 37 37 37 38
73 71 56 53 52 52 56 59 64 68 76 80 77 73 66 60 58 55 51 47 48 50 52 50 49 51 47 46 46 44 42 44 43 43 42 42 38 36 35 38 38 38 39 40 41
49 48 45 39 39 43 43 46 42 53 72 72 78 77 69 64 62 59 57 50 48 47 51 54 53 50 50 48 48 46 45 42 43 40 43 38 37 37 40 38 38 40 41 42 42
41 41 39 36 37 41 40 43 44 41 42 68 73 75 68 65 61 57 54 54 48 48 46 51 53 52 49 48 48 46 46 45 46 46 45 43 40 38 37 39 41 42 43 43 44
36 36 38 31 36 34 35 42 43 36 34 50 63 65 66 62 55 54 54 53 52 49 47 48 48 50 50 48 47 49 48 45 44 43 41 42 35 38 40 41 42 43 44 45 47
Wind_Direction
336 336 333 335 340 343 343 342 329 318 301 293 275 261 249 238 235 234 223 220 218 219 219 215 213 211 210 213 219 218 209 205 205 205 209 213 216 224 233 238 238 241 241 230 230
337 335 335 336 338 339 343 349 330 322 317 307 290 269 250 235 228 226 223 224 220 218 220 216 214 213 212 213 221 221 208 202 202 201 211 212 215 225 235 238 237 237 237 225 229
334 335 336 337 337 338 342 353 336 330 312 307 297 260 247 239 232 227 228 223 222 222 218 216 213 213 214 214 216 226 209 200 198 203 209 212 215 227 233 236 233 235 230 221 227
328 334 334 334 337 336 344 352 345 339 327 318 303 271 246 239 235 232 227 227 220 222 218 215 212 213 214 215 216 224 220 198 196 203 208 210 216 226 232 231 231 232 222 221 225
323 329 333 331 333 337 342 357 353 348 338 334 314 293 248 239 229 227 224 225 222 216 219 212 212 212 215 217 217 221 222 206 195 201 208 209 216 227 229 228 227 224 219 222 226
317 325 331 330 330 334 339 349 2 360 351 336 328 300 254 238 224 224 212 207 219 223 213 207 209 210 215 218 220 222 226 203 195 200 209 208 215 222 223 226 223 218 219 224 229
303 320 328 332 328 329 334 340 1 11 358 358 335 315 277 233 205 196 189 215 212 206 199 201 204 207 213 218 217 220 212 218 210 202 202 208 211 216 222 223 219 216 218 224 230
300 298 319 328 329 325 327 334 350 4 4 358 353 319 281 238 210 205 208 218 216 195 190 193 199 206 211 215 215 215 213 240 217 205 198 207 205 217 220 218 216 217 218 225 232
312 308 304 320 325 324 321 325 331 349 357 359 356 346 305 242 218 194 205 200 204 183 186 192 198 204 208 213 215 216 214 230 217 180 202 208 215 220 219 215 215 220 221 227 234
315 311 306 301 317 320 318 314 320 323 339 356 354 335 312 263 214 212 189 190 185 182 185 190 198 203 206 209 211 214 208 197 181 197 210 216 221 226 221 215 217 222 226 232 237
309 310 312 303 301 311 316 310 309 311 324 344 345 328 301 244 209 195 192 185 185 179 185 192 200 205 206 208 208 209 213 214 199 215 224 222 226 229 226 221 222 225 229 234 239
302 304 306 305 300 298 304 307 305 303 309 330 345 325 300 227 209 187 187 182 175 177 184 192 202 202 204 205 206 211 218 224 232 234 232 229 229 231 227 225 226 229 232 238 243
297 296 299 299 299 295 290 296 300 301 299 291 328 311 303 255 193 196 186 180 174 182 188 196 199 201 203 206 207 210 217 221 226 226 230 230 228 230 228 227 230 234 236 241 246
290 290 290 294 295 292 290 286 292 295 293 271 273 291 294 278 209 188 186 185 178 181 189 195 196 199 202 203 205 208 209 217 222 223 226 227 229 232 230 228 231 235 239 244 249
286 285 286 287 289 288 286 284 280 284 285 281 264 256 275 281 244 198 188 184 183 191 199 201 197 199 202 202 205 207 212 217 220 222 226 228 232 224 231 228 234 237 240 246 252
283 280 281 282 284 282 280 278 276 273 273 274 265 256 251 267 248 221 196 191 189 193 196 197 198 199 200 201 206 209 219 215 218 223 226 228 233 225 227 233 234 238 244 249 255
282 282 278 278 280 277 276 274 270 268 271 267 263 252 233 217 253 233 213 192 193 194 196 195 198 200 201 202 207 208 208 215 222 225 223 226 233 231 228 232 238 242 248 255 261
281 281 280 281 277 272 269 267 265 269 268 256 256 248 234 219 223 234 232 207 198 200 200 196 198 200 204 205 206 207 212 218 224 227 228 231 232 234 236 237 242 246 251 258 262
281 279 279 277 273 270 267 263 268 268 266 258 250 247 240 232 214 227 237 225 213 207 206 202 204 203 199 201 206 210 215 226 232 234 235 236 236 237 239 243 247 251 255 258 261
284 281 277 273 271 267 263 263 264 263 258 257 246 244 241 230 231 221 232 230 218 215 213 212 214 210 212 212 215 218 223 228 233 236 239 236 237 241 245 247 249 251 254 257 261
284 281 278 274 271 268 265 264 263 261 259 250 248 238 237 234 226 223 221 231 223 217 216 215 218 219 220 218 220 223 225 228 232 236 239 243 243 245 248 249 250 253 257 260 263
284 282 280 277 275 270 267 262 257 254 249 246 239 240 230 232 227 224 224 220 223 219 221 220 222 224 224 227 228 228 228 229 233 237 243 248 249 250 246 249 253 256 257 262 267
285 282 280 277 273 267 265 255 250 244 240 238 234 232 229 230 229 222 217 225 222 223 225 221 222 221 223 224 225 227 228 231 233 234 237 240 243 248 252 255 255 259 265 270 273
288 284 276 270 268 264 254 251 243 236 233 231 228 227 225 223 229 226 220 220 225 223 224 225 226 227 226 229 228 232 233 234 234 234 237 240 246 249 253 255 261 267 271 275 278
278 276 273 265 251 242 240 230 244 232 229 227 228 221 220 222 225 225 222 217 222 225 225 225 226 226 226 227 227 228 229 229 231 235 238 239 242 246 251 259 264 269 273 276 279
272 273 271 269 243 238 245 223 226 226 238 227 226 220 218 220 222 224 228 220 215 222 227 228 229 228 228 229 230 231 230 232 232 232 235 238 242 251 258 263 268 271 275 277 279
270 272 272 262 232 232 230 226 229 217 239 229 219 220 218 218 222 220 221 222 216 216 222 226 228 229 232 233 232 231 230 232 233 236 239 243 249 253 259 264 268 271 274 276 276
Height
5780 5774 5767 5761 5753 5745 5736 5726 5716 5711 5708 5705 5702 5701 5701 5703 5709 5716 5725 5729 5737 5747 5757 5770 5779 5790 5799 5806 5811 5816 5824 5833 5841 5846 5850 5854 5857 5859 5862 5864 5866 5868 5870 5871 5872
5775 5769 5763 5756 5749 5741 5732 5723 5715 5710 5704 5699 5694 5692 5691 5692 5696 5705 5711 5719 5727 5739 5748 5761 5770 5780 5789 5796 5804 5803 5815 5826 5834 5839 5844 5847 5851 5854 5857 5859 5862 5864 5866 5868 5869
5770 5764 5758 5750 5743 5736 5727 5720 5712 5707 5701 5694 5686 5681 5682 5685 5690 5696 5702 5709 5719 5728 5738 5748 5759 5769 5779 5788 5795 5799 5808 5816 5826 5833 5837 5840 5845 5849 5851 5854 5856 5859 5862 5864 5865
5765 5759 5752 5746 5739 5732 5723 5715 5709 5702 5695 5688 5682 5675 5674 5677 5682 5686 5692 5699 5708 5717 5727 5739 5750 5761 5771 5779 5790 5795 5801 5808 5816 5825 5830 5835 5839 5844 5846 5849 5851 5854 5857 5860 5862
5760 5755 5748 5741 5736 5728 5720 5712 5706 5698 5690 5684 5680 5673 5670 5673 5674 5677 5683 5690 5699 5707 5717 5731 5744 5755 5764 5773 5783 5789 5799 5803 5811 5818 5823 5829 5834 5838 5841 5844 5846 5849 5852 5855 5857
5754 5749 5745 5738 5733 5726 5719 5709 5702 5695 5687 5680 5678 5674 5672 5670 5668 5671 5677 5685 5690 5698 5707 5722 5738 5747 5755 5766 5777 5789 5796 5797 5804 5811 5818 5824 5828 5833 5836 5838 5841 5845 5847 5851 5852
5748 5745 5740 5736 5729 5723 5717 5709 5699 5693 5687 5679 5678 5675 5673 5668 5666 5669 5674 5680 5686 5691 5701 5714 5727 5738 5749 5759 5771 5781 5791 5792 5799 5804 5813 5818 5822 5829 5830 5834 5836 5840 5843 5846 5848
5743 5738 5735 5732 5726 5721 5714 5708 5700 5690 5685 5679 5676 5675 5672 5669 5667 5668 5671 5675 5680 5684 5694 5706 5720 5729 5740 5752 5766 5774 5785 5788 5797 5802 5810 5813 5819 5820 5824 5828 5831 5835 5837 5840 5843
5738 5734 5731 5727 5723 5718 5713 5706 5700 5691 5684 5679 5674 5674 5672 5668 5665 5664 5666 5670 5674 5679 5691 5703 5713 5723 5736 5748 5760 5771 5783 5787 5791 5798 5806 5808 5812 5815 5818 5822 5826 5829 5832 5835 5837
5733 5728 5725 5722 5719 5714 5709 5705 5699 5693 5684 5679 5674 5676 5673 5670 5666 5663 5664 5668 5674 5680 5689 5699 5709 5720 5731 5744 5756 5769 5779 5783 5786 5796 5799 5802 5807 5809 5812 5816 5820 5823 5826 5829 5831
5729 5725 5720 5717 5713 5711 5706 5702 5698 5693 5684 5679 5675 5674 5674 5671 5668 5664 5665 5669 5674 5682 5693 5701 5709 5719 5735 5747 5756 5765 5773 5775 5781 5788 5793 5797 5800 5804 5807 5811 5815 5818 5820 5822 5825
5722 5719 5716 5710 5707 5705 5702 5697 5694 5691 5687 5679 5674 5671 5674 5671 5669 5666 5667 5672 5677 5687 5693 5701 5712 5724 5732 5741 5751 5758 5764 5770 5777 5783 5787 5791 5795 5797 5801 5805 5808 5810 5814 5816 5818
5713 5710 5709 5705 5701 5698 5696 5693 5688 5686 5685 5681 5675 5673 5673 5673 5669 5670 5671 5673 5678 5687 5696 5705 5716 5721 5729 5738 5747 5754 5761 5767 5772 5776 5780 5784 5788 5790 5796 5799 5802 5805 5807 5810 5811
5701 5699 5699 5697 5695 5691 5689 5687 5685 5681 5680 5682 5674 5673 5671 5674 5672 5671 5671 5675 5678 5686 5692 5699 5709 5718 5726 5735 5743 5750 5756 5760 5765 5769 5772 5777 5780 5784 5789 5793 5796 5798 5800 5802 5804
5691 5687 5686 5687 5687 5683 5682 5679 5678 5678 5674 5677 5673 5669 5670 5673 5676 5671 5671 5673 5679 5685 5692 5702 5707 5714 5721 5732 5738 5744 5749 5754 5758 5762 5765 5770 5773 5778 5781 5786 5789 5791 5793 5795 5796
5677 5676 5673 5674 5674 5673 5671 5670 5670 5670 5668 5672 5672 5669 5668 5669 5674 5673 5671 5673 5677 5681 5688 5695 5703 5709 5716 5724 5730 5738 5742 5747 5751 5754 5755 5763 5766 5771 5775 5780 5781 5784 5786 5787 5788
5662 5662 5660 5660 5662 5661 5660 5660 5658 5655 5665 5669 5669 5667 5667 5666 5671 5673 5672 5671 5675 5679 5684 5690 5697 5704 5710 5716 5722 5729 5736 5739 5743 5745 5750 5756 5759 5764 5769 5772 5774 5776 5777 5779 5780
5647 5645 5645 5646 5644 5645 5646 5646 5643 5649 5656 5660 5663 5663 5663 5663 5664 5671 5670 5669 5672 5677 5683 5687 5693 5698 5704 5712 5721 5725 5729 5733 5736 5740 5745 5747 5750 5757 5761 5765 5767 5768 5770 5771 5772
5628 5630 5628 5628 5624 5626 5627 5624 5632 5640 5647 5651 5654 5655 5658 5658 5658 5663 5669 5669 5670 5675 5680 5684 5688 5695 5699 5705 5712 5716 5720 5727 5730 5733 5736 5738 5744 5749 5753 5756 5759 5760 5761 5762 5762
5607 5610 5610 5608 5604 5603 5606 5612 5618 5625 5632 5637 5642 5645 5649 5651 5653 5654 5661 5667 5668 5671 5675 5680 5683 5689 5695 5699 5704 5709 5716 5718 5720 5725 5728 5731 5735 5740 5745 5748 5750 5750 5751 5752 5753
5585 5585 5581 5584 5578 5577 5585 5595 5602 5609 5614 5622 5628 5631 5636 5641 5643 5645 5653 5662 5664 5666 5668 5673 5677 5683 5687 5691 5697 5702 5705 5710 5715 5717 5720 5723 5727 5733 5735 5737 5739 5741 5742 5742 5743
5559 5560 5553 5555 5546 5549 5560 5567 5578 5584 5591 5598 5610 5616 5622 5628 5632 5635 5642 5650 5655 5657 5660 5665 5668 5673 5679 5685 5689 5693 5697 5702 5704 5710 5714 5717 5721 5723 5726 5728 5730 5731 5732 5733 5733
5527 5529 5521 5522 5520 5518 5527 5530 5542 5553 5562 5573 5586 5597 5605 5612 5618 5623 5628 5635 5641 5647 5650 5655 5656 5661 5667 5672 5676 5681 5688 5693 5697 5700 5704 5708 5713 5713 5716 5718 5718 5719 5721 5722 5721
5492 5492 5494 5492 5496 5490 5494 5497 5506 5521 5535 5546 5561 5574 5586 5594 5602 5611 5615 5622 5629 5634 5639 5644 5647 5652 5660 5667 5674 5677 5682 5686 5688 5691 5696 5699 5703 5705 5705 5705 5707 5709 5709 5710 5710
5469 5469 5468 5474 5475 5471 5473 5476 5487 5495 5507 5525 5534 5550 5566 5577 5586 5594 5602 5607 5616 5622 5627 5632 5638 5644 5649 5654 5659 5665 5670 5673 5676 5684 5684 5693 5693 5693 5694 5697 5698 5699 5699 5699 5699
5454 5452 5452 5457 5456 5460 5463 5470 5477 5487 5493 5502 5515 5538 5551 5560 5573 5584 5591 5595 5601 5610 5616 5621 5627 5634 5638 5644 5648 5653 5658 5662 5667 5669 5673 5678 5682 5683 5685 5686 5687 5687 5688 5688 5688
5439 5439 5436 5443 5445 5449 5454 5459 5465 5473 5481 5490 5508 5524 5536 5550 5559 5564 5573 5582 5586 5595 5603 5609 5616 5623 5627 5633 5637 5640 5648 5653 5658 5661 5666 5668 5674 5673 5674 5676 5677 5677 5678 5677 5676